Torna al catalogo

METEOR 2-8 DEB

AttivoPO
NORAD 36348·DEBRIS·🇷🇺 Russia

Lanciato Mar 25, 1982 da Plesetsk Cosmodrome

Loading…

Prossimi Passaggi (prossime 24 ore)

TLE

In scadenzaSource: Space-Track

Epoca: Sep 9, 2026, 17:27 UTC

1 36348U 82025AJ  26252.72745866  .00004891  00000-0  15445-2 0  9996
2 36348  82.4451  44.3311 0004013  79.2342 280.9300 14.40116961233172

Traccia METEOR 2-8 DEB in tempo reale con AllMySat

Download on the App Store